Regional Weather Roundup
Issued by NWS

Home | Current Version | Previous Version | Text Only | Print | Product List | Glossary Off
Versions: 1 2 3 4 5 6 7 8 9 10 11 12 13 14 15 16 17 18 19 20 21 22 23 24 25 26 27 28 29 30 31 32 33 34 35 36 37 38 39 40 41 42 43 44 45 46 47 48 49 50

628
ASUS43 KIND 170159
RWRIN

WEATHER ROUNDUP FOR INDIANA
NATIONAL WEATHER SERVICE INDIANAPOLIS IN
900 PM EST MON JAN 16 2017

NOTE: "FAIR" INDICATES FEW OR NO CLOUDS BELOW 12,000 FEET WITH NO
SIGNIFICANT WEATHER AND/OR OBSTRUCTIONS TO VISIBILITY.

* - STATION DOES NOT REPORT WEATHER SUCH AS PRECIPITATION OR FOG.

+ - STATION NOT QUALITY CONTROLLED BY THE NATIONAL WEATHER SERVICE.
    USE DATA WITH CAUTION...ESPECIALLY DEWPOINT AND RELATIVE
    HUMIDITY OBSERVATIONS.

INZ001>003-010>013-019-020-170300-
NORTHWEST INDIANA

CITY           SKY/WX    TMP DP  RH WIND       PRES   REMARKS
GARY /AIRPORT/ CLOUDY    39  39 100 E5        29.98F FOG
MONTICELLO +   RAIN      41  40  96 E7        29.99F
RENSSELAER +   FOG       39  39 100 E7        29.98F VSB 1/2

$$

LMZ046-743>745-170300-
SOUTHERN LAKE MICHIGAN

STATION/POSITION TIME  TEMP    WIND        PRES    WAVE
                       AIR SEA DIR/SP/G            HT
                 (UTC) (F)     (DEG/KT/KT) (MB)    (FT)
BURNS HARBOR     0140   41     140/  6/ 12 1015.9F
MICHIGAN CITY    0130   39     110/ 11/ 13   N/A

$$

INZ004-005-014>016-021>024-170300-
NORTH CENTRAL INDIANA

CITY           SKY/WX    TMP DP  RH WIND       PRES   REMARKS
ELKHART        DRIZZLE   36  36 100 E9        30.05F
GOSHEN         CLOUDY    36  34  92 SE10      30.04F FOG
PERU/GRISSOM   FOG       41  41 100 SE8       30.00F VSB 1/2
SOUTH BEND     LGT RAIN  35  35 100 E10       30.03F VSB 3/4 WCI  27

$$

INZ006>009-017-018-025>027-170300-
NORTHEAST INDIANA

CITY           SKY/WX    TMP DP  RH WIND       PRES   REMARKS
ANGOLA *+      CLOUDY    34  32  93 SE7       30.08F WCI  28
FORT WAYNE     FOG       37  36  96 E6        30.07F VSB 1/4
KENDALLVILLE + RAIN      34  34 100 E6        30.07F VSB 3/4 WCI  29

$$

INZ028-029-035-036-043>045-051>053-170300-
WEST CENTRAL INDIANA

CITY           SKY/WX    TMP DP  RH WIND       PRES   REMARKS
CRAWFORDSVL +  DRIZZLE   47  47 100 SE12      29.98F
LAFAYETTE      HVY RAIN  48  48 100 S6        29.99F FOG
TERRE HAUTE    RAIN      52  51  97 SE12      29.99F FOG

$$

INZ030>032-037>040-046>048-054>057-064-065-170300-
CENTRAL INDIANA

CITY           SKY/WX    TMP DP  RH WIND       PRES   REMARKS
COLUMBUS       LGT RAIN  48  48 100 SE5       30.06F FOG
INDIANAPOLIS   LGT RAIN  50  49  96 SE13      30.02F VSB 1
-EAGLE CREEK   LGT RAIN  50  49  96 SE8       30.01F FOG
KOKOMO +       LGT RAIN  42  42 100 SE9       30.03F VSB 1/4
MT COMFORT *+  CLOUDY    48  48 100 SE10      30.03F
SHELBYVILLE    CLOUDY    50  47  89 SE8       30.04F

$$

INZ033-034-041-042-049-050-058-059-170300-
EAST CENTRAL INDIANA

CITY           SKY/WX    TMP DP  RH WIND       PRES   REMARKS
MUNCIE         CLOUDY    50  48  93 S8        30.05F

$$

INZ060-061-067>069-081>083-085>088-170300-
SOUTHWEST INDIANA

CITY           SKY/WX    TMP DP  RH WIND       PRES   REMARKS
EVANSVILLE     LGT RAIN  57  53  86 S6        29.99F
HUNTINGBURG *+ CLOUDY    58  54  86 SE13      30.00F

$$

INZ062-063-066-070>080-084-089>092-170300-
SOUTH CENTRAL AND SOUTHEAST INDIANA

CITY           SKY/WX    TMP DP  RH WIND       PRES   REMARKS
BLOOMINGTON    LGT RAIN  52  49  89 SE7       30.01F
MADISON *+     CLOUDY    52  50  93 E7        30.08F
SEYMOUR +      CLOUDY    52  52 100 SE3       30.05

$$





USA.gov is the U.S. government's official web portal to all federal, state and local government web resources and services.